Year,Month,Day,Hour,Minute,Value (Times are PST for temperature in C)
2015,06,19,00,00,4.20
2015,06,19,00,02,4.20
2015,06,19,00,03,4.20
2015,06,19,00,04,4.20
2015,06,19,00,05,4.20
2015,06,19,00,06,4.20
2015,06,19,00,07,4.20
2015,06,19,00,08,4.20
2015,06,19,00,09,4.20
2015,06,19,00,10,4.20
2015,06,19,00,11,4.20
2015,06,19,00,12,4.20
2015,06,19,00,13,4.20
2015,06,19,00,14,4.20
2015,06,19,00,15,4.20
2015,06,19,00,16,4.20
2015,06,19,00,17,4.20
2015,06,19,00,18,4.20
2015,06,19,00,19,4.20
2015,06,19,00,20,4.20
2015,06,19,00,21,4.20
2015,06,19,00,22,4.20
2015,06,19,00,23,4.20
2015,06,19,00,24,4.20
2015,06,19,00,25,4.20
2015,06,19,00,26,4.20
2015,06,19,00,27,4.20
2015,06,19,00,28,4.20
2015,06,19,00,29,4.20
2015,06,19,00,30,4.20
2015,06,19,00,34,4.30
2015,06,19,00,35,4.30
2015,06,19,00,36,4.30
2015,06,19,00,37,4.30
2015,06,19,00,38,4.30
2015,06,19,00,39,4.30
2015,06,19,00,40,4.30
2015,06,19,00,41,4.30
2015,06,19,00,42,4.30
2015,06,19,00,43,4.30
2015,06,19,00,44,4.30
2015,06,19,00,45,4.30
2015,06,19,00,46,4.30
2015,06,19,00,47,4.30
2015,06,19,00,48,4.30
2015,06,19,00,49,4.30
2015,06,19,00,50,4.30
2015,06,19,00,51,4.30
2015,06,19,00,52,4.30
2015,06,19,00,53,4.30
2015,06,19,00,54,4.30
2015,06,19,00,55,4.30
2015,06,19,00,56,4.30
2015,06,19,00,57,4.30
2015,06,19,00,58,4.30
2015,06,19,00,59,4.30
2015,06,19,01,00,4.30
2015,06,19,01,02,4.20
2015,06,19,01,03,4.20
2015,06,19,01,04,4.20
2015,06,19,01,05,4.20
2015,06,19,01,06,4.20
2015,06,19,01,07,4.20
2015,06,19,01,08,4.20
2015,06,19,01,09,4.20
2015,06,19,01,10,4.20
2015,06,19,01,11,4.20
2015,06,19,01,12,4.20
2015,06,19,01,13,4.20
2015,06,19,01,14,4.20
2015,06,19,01,15,4.20
2015,06,19,01,16,4.20
2015,06,19,01,17,4.20
2015,06,19,01,18,4.20
2015,06,19,01,19,4.20
2015,06,19,01,20,4.20
2015,06,19,01,21,4.20
2015,06,19,01,22,4.20
2015,06,19,01,23,4.20
2015,06,19,01,24,4.20
2015,06,19,01,25,4.20
2015,06,19,01,26,4.20
2015,06,19,01,27,4.20
2015,06,19,01,28,4.20
2015,06,19,01,29,4.20
2015,06,19,01,30,4.20
2015,06,19,01,33,4.10
2015,06,19,01,34,4.10
2015,06,19,01,35,4.10
2015,06,19,01,36,4.10
2015,06,19,01,37,4.10
2015,06,19,01,38,4.10
2015,06,19,01,39,4.10
2015,06,19,01,40,4.10
2015,06,19,01,41,4.10
2015,06,19,01,42,4.10
2015,06,19,01,43,4.10
2015,06,19,01,44,4.10
2015,06,19,01,45,4.10
2015,06,19,01,46,4.10
2015,06,19,01,47,4.10
2015,06,19,01,48,4.10
2015,06,19,01,49,4.10
2015,06,19,01,50,4.10
2015,06,19,01,51,4.10
2015,06,19,01,52,4.10
2015,06,19,01,53,4.10
2015,06,19,01,54,4.10
2015,06,19,01,55,4.10
2015,06,19,01,56,4.10
2015,06,19,01,57,4.10
2015,06,19,01,58,4.10
2015,06,19,01,59,4.10
2015,06,19,02,00,4.10
2015,06,19,02,02,3.80
2015,06,19,02,03,3.80
2015,06,19,02,04,3.80
2015,06,19,02,05,3.80
2015,06,19,02,06,3.80
2015,06,19,02,07,3.80
2015,06,19,02,08,3.80
2015,06,19,02,09,3.80
2015,06,19,02,10,3.80
2015,06,19,02,11,3.80
2015,06,19,02,12,3.80
2015,06,19,02,13,3.80
2015,06,19,02,14,3.80
2015,06,19,02,15,3.80
2015,06,19,02,16,3.80
2015,06,19,02,17,3.80
2015,06,19,02,18,3.80
2015,06,19,02,19,3.80
2015,06,19,02,20,3.80
2015,06,19,02,21,3.80
2015,06,19,02,22,3.80
2015,06,19,02,23,3.80
2015,06,19,02,24,3.80
2015,06,19,02,25,3.80
2015,06,19,02,26,3.80
2015,06,19,02,27,3.80
2015,06,19,02,28,3.80
2015,06,19,02,29,3.80
2015,06,19,02,30,3.80
2015,06,19,02,32,3.70
2015,06,19,02,33,3.70
2015,06,19,02,34,3.70
2015,06,19,02,35,3.70
2015,06,19,02,36,3.70
2015,06,19,02,37,3.70
2015,06,19,02,38,3.70
2015,06,19,02,39,3.70
2015,06,19,02,40,3.70
2015,06,19,02,41,3.70
2015,06,19,02,42,3.70
2015,06,19,02,43,3.70
2015,06,19,02,44,3.70
2015,06,19,02,45,3.70
2015,06,19,02,46,3.70
2015,06,19,02,47,3.70
2015,06,19,02,48,3.70
2015,06,19,02,49,3.70
2015,06,19,02,50,3.70
2015,06,19,02,51,3.70
2015,06,19,02,52,3.70
2015,06,19,02,53,3.70
2015,06,19,02,54,3.70
2015,06,19,02,55,3.70
2015,06,19,02,56,3.70
2015,06,19,02,57,3.70
2015,06,19,02,58,3.70
2015,06,19,02,59,3.70
2015,06,19,03,00,3.70
2015,06,19,03,02,3.40
2015,06,19,03,03,3.40
2015,06,19,03,04,3.40
2015,06,19,03,05,3.40
2015,06,19,03,06,3.40
2015,06,19,03,07,3.40
2015,06,19,03,08,3.40
2015,06,19,03,09,3.40
2015,06,19,03,10,3.40
2015,06,19,03,11,3.40
2015,06,19,03,12,3.40
2015,06,19,03,13,3.40
2015,06,19,03,14,3.40
2015,06,19,03,15,3.40
2015,06,19,03,16,3.40
2015,06,19,03,17,3.40
2015,06,19,03,18,3.40
2015,06,19,03,19,3.40
2015,06,19,03,20,3.40
2015,06,19,03,21,3.40
2015,06,19,03,22,3.40
2015,06,19,03,23,3.40
2015,06,19,03,24,3.40
2015,06,19,03,25,3.40
2015,06,19,03,26,3.40
2015,06,19,03,27,3.40
2015,06,19,03,28,3.40
2015,06,19,03,29,3.40
2015,06,19,03,30,3.40
2015,06,19,03,32,3.20
2015,06,19,03,33,3.20
2015,06,19,03,34,3.20
2015,06,19,03,35,3.20
2015,06,19,03,36,3.20
2015,06,19,03,37,3.20
2015,06,19,03,38,3.20
2015,06,19,03,39,3.20
2015,06,19,03,40,3.20
2015,06,19,03,41,3.20
2015,06,19,03,42,3.20
2015,06,19,03,43,3.20
2015,06,19,03,44,3.20
2015,06,19,03,45,3.20
2015,06,19,03,46,3.20
2015,06,19,03,47,3.20
2015,06,19,03,48,3.20
2015,06,19,03,49,3.20
2015,06,19,03,50,3.20
2015,06,19,03,51,3.20
2015,06,19,03,52,3.20
2015,06,19,03,53,3.20
2015,06,19,03,54,3.20
2015,06,19,03,55,3.20
2015,06,19,03,56,3.20
2015,06,19,03,57,3.20
2015,06,19,03,58,3.20
2015,06,19,03,59,3.20
2015,06,19,04,00,3.20
2015,06,19,04,02,2.80
2015,06,19,04,03,2.80
2015,06,19,04,04,2.80
2015,06,19,04,05,2.80
2015,06,19,04,06,2.80
2015,06,19,04,07,2.80
2015,06,19,04,08,2.80
2015,06,19,04,09,2.80
2015,06,19,04,10,2.80
2015,06,19,04,11,2.80
2015,06,19,04,12,2.80
2015,06,19,04,13,2.80
2015,06,19,04,14,2.80
2015,06,19,04,15,2.80
2015,06,19,04,16,2.80
2015,06,19,04,17,2.80
2015,06,19,04,18,2.80
2015,06,19,04,19,2.80
2015,06,19,04,20,2.80
2015,06,19,04,21,2.80
2015,06,19,04,22,2.80
2015,06,19,04,23,2.80
2015,06,19,04,24,2.80
2015,06,19,04,25,2.80
2015,06,19,04,26,2.80
2015,06,19,04,27,2.80
2015,06,19,04,28,2.80
2015,06,19,04,29,2.80
2015,06,19,04,30,2.80
2015,06,19,04,33,2.80
2015,06,19,04,34,2.80
2015,06,19,04,35,2.80
2015,06,19,04,36,2.80
2015,06,19,04,37,2.80
2015,06,19,04,38,2.80
2015,06,19,04,39,2.80
2015,06,19,04,40,2.80
2015,06,19,04,41,2.80
2015,06,19,04,42,2.80
2015,06,19,04,43,2.80
2015,06,19,04,44,2.80
2015,06,19,04,45,2.80
2015,06,19,04,46,2.80
2015,06,19,04,47,2.80
2015,06,19,04,48,2.80
2015,06,19,04,49,2.80
2015,06,19,04,50,2.80
2015,06,19,04,51,2.80
2015,06,19,04,52,2.80
2015,06,19,04,53,2.80
2015,06,19,04,54,2.80
2015,06,19,04,55,2.80
2015,06,19,04,56,2.80
2015,06,19,04,57,2.80
2015,06,19,04,58,2.80
2015,06,19,04,59,2.80
2015,06,19,05,00,2.80
2015,06,19,05,02,2.80
2015,06,19,05,03,2.80
2015,06,19,05,04,2.80
2015,06,19,05,05,2.80
2015,06,19,05,06,2.80
2015,06,19,05,07,2.80
2015,06,19,05,08,2.80
2015,06,19,05,09,2.80
2015,06,19,05,10,2.80
2015,06,19,05,11,2.80
2015,06,19,05,12,2.80
2015,06,19,05,13,2.80
2015,06,19,05,14,2.80
2015,06,19,05,15,2.80
2015,06,19,05,16,2.80
2015,06,19,05,17,2.80
2015,06,19,05,18,2.80
2015,06,19,05,19,2.80
2015,06,19,05,20,2.80
2015,06,19,05,21,2.80
2015,06,19,05,22,2.80
2015,06,19,05,23,2.80
2015,06,19,05,24,2.80
2015,06,19,05,25,2.80
2015,06,19,05,26,2.80
2015,06,19,05,27,2.80
2015,06,19,05,28,2.80
2015,06,19,05,29,2.80
2015,06,19,05,30,2.80
2015,06,19,05,32,3.00
2015,06,19,05,33,3.00
2015,06,19,05,34,3.00
2015,06,19,05,35,3.00
2015,06,19,05,36,3.00
2015,06,19,05,37,3.00
2015,06,19,05,38,3.00
2015,06,19,05,39,3.00
2015,06,19,05,40,3.00
2015,06,19,05,41,3.00
2015,06,19,05,42,3.00
2015,06,19,05,43,3.00
2015,06,19,05,44,3.00
2015,06,19,05,45,3.00
2015,06,19,05,46,3.00
2015,06,19,05,47,3.00
2015,06,19,05,48,3.00
2015,06,19,05,49,3.00
2015,06,19,05,50,3.00
2015,06,19,05,51,3.00
2015,06,19,05,52,3.00
2015,06,19,05,53,3.00
2015,06,19,05,54,3.00
2015,06,19,05,55,3.00
2015,06,19,05,56,3.00
2015,06,19,05,57,3.00
2015,06,19,05,58,3.00
2015,06,19,05,59,3.00
2015,06,19,06,00,3.00
2015,06,19,06,02,3.30
2015,06,19,06,03,3.30
2015,06,19,06,04,3.30
2015,06,19,06,05,3.30
2015,06,19,06,06,3.30
2015,06,19,06,07,3.30
2015,06,19,06,08,3.30
2015,06,19,06,09,3.30
2015,06,19,06,10,3.30
2015,06,19,06,11,3.30
2015,06,19,06,12,3.30
2015,06,19,06,13,3.30
2015,06,19,06,14,3.30
2015,06,19,06,15,3.30
2015,06,19,06,16,3.30
2015,06,19,06,17,3.30
2015,06,19,06,18,3.30
2015,06,19,06,19,3.30
2015,06,19,06,20,3.30
2015,06,19,06,21,3.30
2015,06,19,06,22,3.30
2015,06,19,06,23,3.30
2015,06,19,06,24,3.30
2015,06,19,06,25,3.30
2015,06,19,06,26,3.30
2015,06,19,06,27,3.30
2015,06,19,06,28,3.30
2015,06,19,06,29,3.30
2015,06,19,06,30,3.30
2015,06,19,06,32,3.40
2015,06,19,06,33,3.40
2015,06,19,06,34,3.40
2015,06,19,06,35,3.40
2015,06,19,06,36,3.40
2015,06,19,06,37,3.40
2015,06,19,06,38,3.40
2015,06,19,06,39,3.40
2015,06,19,06,40,3.40
2015,06,19,06,41,3.40
2015,06,19,06,42,3.40
2015,06,19,06,43,3.40
2015,06,19,06,44,3.40
2015,06,19,06,45,3.40
2015,06,19,06,46,3.40
2015,06,19,06,47,3.40
2015,06,19,06,48,3.40
2015,06,19,06,49,3.40
2015,06,19,06,50,3.40
2015,06,19,06,51,3.40
2015,06,19,06,52,3.40
2015,06,19,06,53,3.40
2015,06,19,06,54,3.40
2015,06,19,06,55,3.40
2015,06,19,06,56,3.40
2015,06,19,06,57,3.40
2015,06,19,06,58,3.40
2015,06,19,06,59,3.40
2015,06,19,07,00,3.40
2015,06,19,07,02,3.20
2015,06,19,07,03,3.20
2015,06,19,07,04,3.20
2015,06,19,07,05,3.20
2015,06,19,07,06,3.20
2015,06,19,07,07,3.20
2015,06,19,07,08,3.20
2015,06,19,07,09,3.20
2015,06,19,07,10,3.20
2015,06,19,07,11,3.20
2015,06,19,07,12,3.20
2015,06,19,07,13,3.20
2015,06,19,07,14,3.20
2015,06,19,07,15,3.20
2015,06,19,07,16,3.20
2015,06,19,07,17,3.20
2015,06,19,07,18,3.20
2015,06,19,07,19,3.20
2015,06,19,07,20,3.20
2015,06,19,07,21,3.20
2015,06,19,07,22,3.20
2015,06,19,07,23,3.20
2015,06,19,07,24,3.20
2015,06,19,07,25,3.20
2015,06,19,07,26,3.20
2015,06,19,07,27,3.20
2015,06,19,07,28,3.20
2015,06,19,07,29,3.20
2015,06,19,07,30,3.20
2015,06,19,07,32,2.90
2015,06,19,07,33,2.90
2015,06,19,07,34,2.90
2015,06,19,07,35,2.90
2015,06,19,07,36,2.90
2015,06,19,07,37,2.90
2015,06,19,07,38,2.90
2015,06,19,07,39,2.90
2015,06,19,07,40,2.90
2015,06,19,07,41,2.90
2015,06,19,07,42,2.90
2015,06,19,07,43,2.90
2015,06,19,07,44,2.90
2015,06,19,07,45,2.90
2015,06,19,07,46,2.90
2015,06,19,07,47,2.90
2015,06,19,07,48,2.90
2015,06,19,07,49,2.90
2015,06,19,07,50,2.90
2015,06,19,07,51,2.90
2015,06,19,07,52,2.90
2015,06,19,07,53,2.90
2015,06,19,07,54,2.90
2015,06,19,07,55,2.90
2015,06,19,07,56,2.90
2015,06,19,07,57,2.90
2015,06,19,07,58,2.90
2015,06,19,07,59,2.90
2015,06,19,08,00,2.90
2015,06,19,08,03,3.70
2015,06,19,08,04,3.70
2015,06,19,08,05,3.70
2015,06,19,08,06,3.70
2015,06,19,08,07,3.70
2015,06,19,08,08,3.70
2015,06,19,08,09,3.70
2015,06,19,08,10,3.70
2015,06,19,08,11,3.70
2015,06,19,08,12,3.70
2015,06,19,08,13,3.70
2015,06,19,08,14,3.70
2015,06,19,08,15,3.70
2015,06,19,08,16,3.70
2015,06,19,08,17,3.70
2015,06,19,08,18,3.70
2015,06,19,08,19,3.70
2015,06,19,08,20,3.70
2015,06,19,08,21,3.70
2015,06,19,08,22,3.70
2015,06,19,08,23,3.70
2015,06,19,08,24,3.70
2015,06,19,08,25,3.70
2015,06,19,08,26,3.70
2015,06,19,08,27,3.70
2015,06,19,08,28,3.70
2015,06,19,08,29,3.70
2015,06,19,08,30,3.70
2015,06,19,08,32,3.80
2015,06,19,08,33,3.80
2015,06,19,08,34,3.80
2015,06,19,08,35,3.80
2015,06,19,08,36,3.80
2015,06,19,08,37,3.80
2015,06,19,08,38,3.80
2015,06,19,08,39,3.80
2015,06,19,08,40,3.80
2015,06,19,08,41,3.80
2015,06,19,08,42,3.80
2015,06,19,08,43,3.80
2015,06,19,08,44,3.80
2015,06,19,08,45,3.80
2015,06,19,08,46,3.80
2015,06,19,08,47,3.80
2015,06,19,08,48,3.80
2015,06,19,08,49,3.80
2015,06,19,08,50,3.80
2015,06,19,08,51,3.80
2015,06,19,08,52,3.80
2015,06,19,08,53,3.80
2015,06,19,08,54,3.80
2015,06,19,08,55,3.80
2015,06,19,08,56,3.80
2015,06,19,08,57,3.80
2015,06,19,08,58,3.80
2015,06,19,08,59,3.80
2015,06,19,09,00,3.80
2015,06,19,09,03,3.90
2015,06,19,09,04,3.90
2015,06,19,09,05,3.90
2015,06,19,09,06,3.90
2015,06,19,09,07,3.90
2015,06,19,09,08,3.90
2015,06,19,09,09,3.90
2015,06,19,09,10,3.90
2015,06,19,09,11,3.90
2015,06,19,09,12,3.90
2015,06,19,09,13,3.90
2015,06,19,09,14,3.90
2015,06,19,09,15,3.90
2015,06,19,09,16,3.90
2015,06,19,09,17,3.90
2015,06,19,09,18,3.90
2015,06,19,09,19,3.90
2015,06,19,09,20,3.90
2015,06,19,09,21,3.90
2015,06,19,09,22,3.90
2015,06,19,09,23,3.90
2015,06,19,09,24,3.90
2015,06,19,09,25,3.90
2015,06,19,09,26,3.90
2015,06,19,09,27,3.90
2015,06,19,09,28,3.90
2015,06,19,09,29,3.90
2015,06,19,09,30,3.90
2015,06,19,09,32,4.80
2015,06,19,09,33,4.80
2015,06,19,09,34,4.80
2015,06,19,09,35,4.80
2015,06,19,09,36,4.80
2015,06,19,09,37,4.80
2015,06,19,09,38,4.80
2015,06,19,09,39,4.80
2015,06,19,09,40,4.80
2015,06,19,09,41,4.80
2015,06,19,09,42,4.80
2015,06,19,09,43,4.80
2015,06,19,09,44,4.80
2015,06,19,09,45,4.80
2015,06,19,09,46,4.80
2015,06,19,09,47,4.80
2015,06,19,09,48,4.80
2015,06,19,09,49,4.80
2015,06,19,09,50,4.80
2015,06,19,09,51,4.80
2015,06,19,09,52,4.80
2015,06,19,09,53,4.80
2015,06,19,09,54,4.80
2015,06,19,09,55,4.80
2015,06,19,09,56,4.80
2015,06,19,09,57,4.80
2015,06,19,09,58,4.80
2015,06,19,09,59,4.80
2015,06,19,10,00,4.80
2015,06,19,10,02,4.20
2015,06,19,10,03,4.20
2015,06,19,10,04,4.20
2015,06,19,10,05,4.20
2015,06,19,10,06,4.20
2015,06,19,10,07,4.20
2015,06,19,10,08,4.20
2015,06,19,10,09,4.20
2015,06,19,10,10,4.20
2015,06,19,10,11,4.20
2015,06,19,10,12,4.20
2015,06,19,10,13,4.20
2015,06,19,10,14,4.20
2015,06,19,10,15,4.20
2015,06,19,10,16,4.20
2015,06,19,10,17,4.20
2015,06,19,10,18,4.20
2015,06,19,10,19,4.20
2015,06,19,10,20,4.20
2015,06,19,10,21,4.20
2015,06,19,10,22,4.20
2015,06,19,10,23,4.20
2015,06,19,10,24,4.20
2015,06,19,10,25,4.20
2015,06,19,10,26,4.20
2015,06,19,10,27,4.20
2015,06,19,10,28,4.20
2015,06,19,10,29,4.20
2015,06,19,10,30,4.20
2015,06,19,10,32,4.20
2015,06,19,10,33,4.20
2015,06,19,10,34,4.20
2015,06,19,10,35,4.20
2015,06,19,10,36,4.20
2015,06,19,10,37,4.20
2015,06,19,10,38,4.20
2015,06,19,10,39,4.20
2015,06,19,10,40,4.20
2015,06,19,10,41,4.20
2015,06,19,10,42,4.20
2015,06,19,10,43,4.20
2015,06,19,10,44,4.20
2015,06,19,10,45,4.20
2015,06,19,10,46,4.20
2015,06,19,10,47,4.20
2015,06,19,10,48,4.20
2015,06,19,10,49,4.20
2015,06,19,10,50,4.20
2015,06,19,10,51,4.20
2015,06,19,10,52,4.20
2015,06,19,10,53,4.20
2015,06,19,10,54,4.20
2015,06,19,10,55,4.20
2015,06,19,10,56,4.20
2015,06,19,10,57,4.20
2015,06,19,10,58,4.20
2015,06,19,10,59,4.20
2015,06,19,11,00,4.20
2015,06,19,11,02,5.10
2015,06,19,11,03,5.10
2015,06,19,11,04,5.10
2015,06,19,11,05,5.10
2015,06,19,11,06,5.10
2015,06,19,11,07,5.10
2015,06,19,11,08,5.10
2015,06,19,11,09,5.10
2015,06,19,11,10,5.10
2015,06,19,11,11,5.10
2015,06,19,11,12,5.10
2015,06,19,11,13,5.10
2015,06,19,11,14,5.10
2015,06,19,11,15,5.10
2015,06,19,11,16,5.10
2015,06,19,11,17,5.10
2015,06,19,11,18,5.10
2015,06,19,11,19,5.10
2015,06,19,11,20,5.10
2015,06,19,11,21,5.10
2015,06,19,11,22,5.10
2015,06,19,11,23,5.10
2015,06,19,11,24,5.10
2015,06,19,11,25,5.10
2015,06,19,11,26,5.10
2015,06,19,11,27,5.10
2015,06,19,11,28,5.10
2015,06,19,11,29,5.10
2015,06,19,11,30,5.10
2015,06,19,11,31,4.70
2015,06,19,11,32,4.70
2015,06,19,11,33,4.70
2015,06,19,11,34,4.70
2015,06,19,11,35,4.70
2015,06,19,11,36,4.70
2015,06,19,11,37,4.70
2015,06,19,11,38,4.70
2015,06,19,11,39,4.70
2015,06,19,11,40,4.70
2015,06,19,11,41,4.70
2015,06,19,11,42,4.70
2015,06,19,11,43,4.70
2015,06,19,11,44,4.70
2015,06,19,11,45,4.70
2015,06,19,11,46,4.70
2015,06,19,11,47,4.70
2015,06,19,11,48,4.70
2015,06,19,11,49,4.70
2015,06,19,11,50,4.70
2015,06,19,11,51,4.70
2015,06,19,11,52,4.70
2015,06,19,11,53,4.70
2015,06,19,11,54,4.70
2015,06,19,11,55,4.70
2015,06,19,11,56,4.70
2015,06,19,11,57,4.70
2015,06,19,11,58,4.70
2015,06,19,11,59,4.70
2015,06,19,12,00,4.70
2015,06,19,12,02,6.00
2015,06,19,12,03,6.00
2015,06,19,12,04,6.00
2015,06,19,12,05,6.00
2015,06,19,12,06,6.00
2015,06,19,12,07,6.00
2015,06,19,12,08,6.00
2015,06,19,12,09,6.00
2015,06,19,12,10,6.00
2015,06,19,12,11,6.00
2015,06,19,12,12,6.00
2015,06,19,12,13,6.00
2015,06,19,12,14,6.00
2015,06,19,12,15,6.00
2015,06,19,12,16,6.00
2015,06,19,12,17,6.00
2015,06,19,12,18,6.00
2015,06,19,12,19,6.00
2015,06,19,12,20,6.00
2015,06,19,12,21,6.00
2015,06,19,12,22,6.00
2015,06,19,12,23,6.00
2015,06,19,12,24,6.00
2015,06,19,12,25,6.00
2015,06,19,12,26,6.00
2015,06,19,12,27,6.00
2015,06,19,12,28,6.00
2015,06,19,12,29,6.00
2015,06,19,12,30,6.00
2015,06,19,12,33,6.00
2015,06,19,12,34,6.00
2015,06,19,12,35,6.00
2015,06,19,12,36,6.00
2015,06,19,12,37,6.00
2015,06,19,12,38,6.00
2015,06,19,12,39,6.00
2015,06,19,12,40,6.00
2015,06,19,12,41,6.00
2015,06,19,12,42,6.00
2015,06,19,12,43,6.00
2015,06,19,12,44,6.00
2015,06,19,12,45,6.00
2015,06,19,12,46,6.00
2015,06,19,12,47,6.00
2015,06,19,12,48,6.00
2015,06,19,12,49,6.00
2015,06,19,12,50,6.00
2015,06,19,12,51,6.00
2015,06,19,12,52,6.00
2015,06,19,12,53,6.00
2015,06,19,12,54,6.00
2015,06,19,12,55,6.00
2015,06,19,12,56,6.00
2015,06,19,12,57,6.00
2015,06,19,12,58,6.00
2015,06,19,12,59,6.00
2015,06,19,13,00,6.00
2015,06,19,13,02,4.60
2015,06,19,13,03,4.60
2015,06,19,13,04,4.60
2015,06,19,13,05,4.60
2015,06,19,13,06,4.60
2015,06,19,13,07,4.60
2015,06,19,13,08,4.60
2015,06,19,13,09,4.60
2015,06,19,13,10,4.60
2015,06,19,13,11,4.60
2015,06,19,13,12,4.60
2015,06,19,13,13,4.60
2015,06,19,13,14,4.60
2015,06,19,13,15,4.60
2015,06,19,13,16,4.60
2015,06,19,13,17,4.60
2015,06,19,13,18,4.60
2015,06,19,13,19,4.60
2015,06,19,13,20,4.60
2015,06,19,13,21,4.60
2015,06,19,13,22,4.60
2015,06,19,13,23,4.60
2015,06,19,13,24,4.60
2015,06,19,13,25,4.60
2015,06,19,13,26,4.60
2015,06,19,13,27,4.60
2015,06,19,13,28,4.60
2015,06,19,13,29,4.60
2015,06,19,13,30,4.60
2015,06,19,13,34,5.80
2015,06,19,13,35,5.80
2015,06,19,13,36,5.80
2015,06,19,13,37,5.80
2015,06,19,13,38,5.80
2015,06,19,13,39,5.80
2015,06,19,13,40,5.80
2015,06,19,13,41,5.80
2015,06,19,13,42,5.80
2015,06,19,13,43,5.80
2015,06,19,13,44,5.80
2015,06,19,13,45,5.80
2015,06,19,13,46,5.80
2015,06,19,13,47,5.80
2015,06,19,13,48,5.80
2015,06,19,13,49,5.80
2015,06,19,13,50,5.80
2015,06,19,13,51,5.80
2015,06,19,13,52,5.80
2015,06,19,13,53,5.80
2015,06,19,13,54,5.80
2015,06,19,13,55,5.80
2015,06,19,13,56,5.80
2015,06,19,13,57,5.80
2015,06,19,13,58,5.80
2015,06,19,13,59,5.80
2015,06,19,14,00,5.80
2015,06,19,14,03,5.90
2015,06,19,14,04,5.90
2015,06,19,14,05,5.90
2015,06,19,14,06,5.90
2015,06,19,14,07,5.90
2015,06,19,14,08,5.90
2015,06,19,14,09,5.90
2015,06,19,14,10,5.90
2015,06,19,14,11,5.90
2015,06,19,14,12,5.90
2015,06,19,14,13,5.90
2015,06,19,14,14,5.90
2015,06,19,14,15,5.90
2015,06,19,14,16,5.90
2015,06,19,14,17,5.90
2015,06,19,14,18,5.90
2015,06,19,14,19,5.90
2015,06,19,14,20,5.90
2015,06,19,14,21,5.90
2015,06,19,14,22,5.90
2015,06,19,14,23,5.90
2015,06,19,14,24,5.90
2015,06,19,14,25,5.90
2015,06,19,14,26,5.90
2015,06,19,14,27,5.90
2015,06,19,14,28,5.90
2015,06,19,14,29,5.90
2015,06,19,14,30,5.90
2015,06,19,14,33,5.10
2015,06,19,14,34,5.10
2015,06,19,14,35,5.10
2015,06,19,14,36,5.10
2015,06,19,14,37,5.10
2015,06,19,14,38,5.10
2015,06,19,14,39,5.10
2015,06,19,14,40,5.10
2015,06,19,14,41,5.10
2015,06,19,14,42,5.10
2015,06,19,14,43,5.10
2015,06,19,14,44,5.10
2015,06,19,14,45,5.10
2015,06,19,14,46,5.10
2015,06,19,14,47,5.10
2015,06,19,14,48,5.10
2015,06,19,14,49,5.10
2015,06,19,14,50,5.10
2015,06,19,14,51,5.10
2015,06,19,14,52,5.10
2015,06,19,14,53,5.10
2015,06,19,14,54,5.10
2015,06,19,14,55,5.10
2015,06,19,14,56,5.10
2015,06,19,14,57,5.10
2015,06,19,14,58,5.10
2015,06,19,14,59,5.10
2015,06,19,15,00,5.10
2015,06,19,15,04,5.80
2015,06,19,15,05,5.80
2015,06,19,15,06,5.80
2015,06,19,15,07,5.80
2015,06,19,15,08,5.80
2015,06,19,15,09,5.80
2015,06,19,15,10,5.80
2015,06,19,15,11,5.80
2015,06,19,15,12,5.80
2015,06,19,15,13,5.80
2015,06,19,15,14,5.80
2015,06,19,15,15,5.80
2015,06,19,15,16,5.80
2015,06,19,15,17,5.80
2015,06,19,15,18,5.80
2015,06,19,15,19,5.80
2015,06,19,15,20,5.80
2015,06,19,15,21,5.80
2015,06,19,15,22,5.80
2015,06,19,15,23,5.80
2015,06,19,15,24,5.80
2015,06,19,15,25,5.80
2015,06,19,15,26,5.80
2015,06,19,15,27,5.80
2015,06,19,15,28,5.80
2015,06,19,15,29,5.80
2015,06,19,15,30,5.80
2015,06,19,15,32,5.10
2015,06,19,15,33,5.10
2015,06,19,15,34,5.10
2015,06,19,15,35,5.10
2015,06,19,15,36,5.10
2015,06,19,15,37,5.10
2015,06,19,15,38,5.10
2015,06,19,15,39,5.10
2015,06,19,15,40,5.10
2015,06,19,15,41,5.10
2015,06,19,15,42,5.10
2015,06,19,15,43,5.10
2015,06,19,15,44,5.10
2015,06,19,15,45,5.10
2015,06,19,15,46,5.10
2015,06,19,15,47,5.10
2015,06,19,15,48,5.10
2015,06,19,15,49,5.10
2015,06,19,15,50,5.10
2015,06,19,15,51,5.10
2015,06,19,15,52,5.10
2015,06,19,15,53,5.10
2015,06,19,15,54,5.10
2015,06,19,15,55,5.10
2015,06,19,15,56,5.10
2015,06,19,15,57,5.10
2015,06,19,15,58,5.10
2015,06,19,15,59,5.10
2015,06,19,16,00,5.10
2015,06,19,16,02,5.10
2015,06,19,16,03,5.10
2015,06,19,16,04,5.10
2015,06,19,16,05,5.10
2015,06,19,16,06,5.10
2015,06,19,16,07,5.10
2015,06,19,16,08,5.10
2015,06,19,16,09,5.10
2015,06,19,16,10,5.10
2015,06,19,16,11,5.10
2015,06,19,16,12,5.10
2015,06,19,16,13,5.10
2015,06,19,16,14,5.10
2015,06,19,16,15,5.10
2015,06,19,16,16,5.10
2015,06,19,16,17,5.10
2015,06,19,16,18,5.10
2015,06,19,16,19,5.10
2015,06,19,16,20,5.10
2015,06,19,16,21,5.10
2015,06,19,16,22,5.10
2015,06,19,16,23,5.10
2015,06,19,16,24,5.10
2015,06,19,16,25,5.10
2015,06,19,16,26,5.10
2015,06,19,16,27,5.10
2015,06,19,16,28,5.10
2015,06,19,16,29,5.10
2015,06,19,16,30,5.10
2015,06,19,16,32,5.50
2015,06,19,16,33,5.50
2015,06,19,16,34,5.50
2015,06,19,16,35,5.50
2015,06,19,16,36,5.50
2015,06,19,16,37,5.50
2015,06,19,16,38,5.50
2015,06,19,16,39,5.50
2015,06,19,16,40,5.50
2015,06,19,16,41,5.50
2015,06,19,16,42,5.50
2015,06,19,16,43,5.50
2015,06,19,16,44,5.50
2015,06,19,16,45,5.50
2015,06,19,16,46,5.50
2015,06,19,16,47,5.50
2015,06,19,16,48,5.50
2015,06,19,16,49,5.50
2015,06,19,16,50,5.50
2015,06,19,16,51,5.50
2015,06,19,16,52,5.50
2015,06,19,16,53,5.50
2015,06,19,16,54,5.50
2015,06,19,16,55,5.50
2015,06,19,16,56,5.50
2015,06,19,16,57,5.50
2015,06,19,16,58,5.50
2015,06,19,16,59,5.50
2015,06,19,17,00,5.50
2015,06,19,17,03,5.30
2015,06,19,17,04,5.30
2015,06,19,17,05,5.30
2015,06,19,17,06,5.30
2015,06,19,17,07,5.30
2015,06,19,17,08,5.30
2015,06,19,17,09,5.30
2015,06,19,17,10,5.30
2015,06,19,17,11,5.30
2015,06,19,17,12,5.30
2015,06,19,17,13,5.30
2015,06,19,17,14,5.30
2015,06,19,17,15,5.30
2015,06,19,17,16,5.30
2015,06,19,17,17,5.30
2015,06,19,17,18,5.30
2015,06,19,17,19,5.30
2015,06,19,17,20,5.30
2015,06,19,17,21,5.30
2015,06,19,17,22,5.30
2015,06,19,17,23,5.30
2015,06,19,17,24,5.30
2015,06,19,17,25,5.30
2015,06,19,17,26,5.30
2015,06,19,17,27,5.30
2015,06,19,17,28,5.30
2015,06,19,17,29,5.30
2015,06,19,17,30,5.30
2015,06,19,17,32,5.30
2015,06,19,17,34,5.30
2015,06,19,17,35,5.30
2015,06,19,17,36,5.30
2015,06,19,17,37,5.30
2015,06,19,17,38,5.30
2015,06,19,17,39,5.30
2015,06,19,17,40,5.30
2015,06,19,17,41,5.30
2015,06,19,17,42,5.30
2015,06,19,17,43,5.30
2015,06,19,17,44,5.30
2015,06,19,17,45,5.30
2015,06,19,17,46,5.30
2015,06,19,17,47,5.30
2015,06,19,17,48,5.30
2015,06,19,17,49,5.30
2015,06,19,17,50,5.30
2015,06,19,17,51,5.30
2015,06,19,17,52,5.30
2015,06,19,17,53,5.30
2015,06,19,17,54,5.30
2015,06,19,17,55,5.30
2015,06,19,17,56,5.30
2015,06,19,17,57,5.30
2015,06,19,17,58,5.30
2015,06,19,17,59,5.30
2015,06,19,18,00,5.30
2015,06,19,18,02,5.50
2015,06,19,18,03,5.50
2015,06,19,18,04,5.50
2015,06,19,18,05,5.50
2015,06,19,18,06,5.50
2015,06,19,18,07,5.50
2015,06,19,18,08,5.50
2015,06,19,18,09,5.50
2015,06,19,18,10,5.50
2015,06,19,18,11,5.50
2015,06,19,18,12,5.50
2015,06,19,18,13,5.50
2015,06,19,18,14,5.50
2015,06,19,18,15,5.50
2015,06,19,18,16,5.50
2015,06,19,18,17,5.50
2015,06,19,18,18,5.50
2015,06,19,18,19,5.50
2015,06,19,18,20,5.50
2015,06,19,18,21,5.50
2015,06,19,18,22,5.50
2015,06,19,18,23,5.50
2015,06,19,18,24,5.50
2015,06,19,18,25,5.50
2015,06,19,18,26,5.50
2015,06,19,18,27,5.50
2015,06,19,18,28,5.50
2015,06,19,18,29,5.50
2015,06,19,18,30,5.50
2015,06,19,18,33,4.90
2015,06,19,18,34,4.90
2015,06,19,18,35,4.90
2015,06,19,18,36,4.90
2015,06,19,18,37,4.90
2015,06,19,18,38,4.90
2015,06,19,18,39,4.90
2015,06,19,18,40,4.90
2015,06,19,18,41,4.90
2015,06,19,18,42,4.90
2015,06,19,18,43,4.90
2015,06,19,18,44,4.90
2015,06,19,18,45,4.90
2015,06,19,18,46,4.90
2015,06,19,18,47,4.90
2015,06,19,18,48,4.90
2015,06,19,18,49,4.90
2015,06,19,18,50,4.90
2015,06,19,18,51,4.90
2015,06,19,18,52,4.90
2015,06,19,18,53,4.90
2015,06,19,18,54,4.90
2015,06,19,18,55,4.90
2015,06,19,18,56,4.90
2015,06,19,18,57,4.90
2015,06,19,18,58,4.90
2015,06,19,18,59,4.90